Weather History for Tanger, Morocco

Change the Weather History Date:

Sunday, September 9, 2012

  Actual Average Record
Temperature  
Mean Temperature 72 °F -  
Max Temperature 77 °F 77 °F 91 °F (2006)
Min Temperature 66 °F 62 °F 60 °F (2005)
Cooling Degree Days 6    
Growing Degree Days 22 (Base 50)    
Moisture  
Dew Point 63 °F    
Average Humidity 70    
Maximum Humidity 94    
Minimum Humidity 50    
Precipitation  
Precipitation 0.00 in 0.04 in - ()
Sea Level Pressure  
Sea Level Pressure 30.10 in    
Wind  
Wind Speed 6 mph ()    
Max Wind Speed 14 mph    
Max Gust Speed -    
Visibility 4.2 miles    
Events      
Averages and records for this station are not official NWS values.
T = Trace of Precipitation, MM = Missing Value Source: Averaged Metar Reports

Daily Weather History Graph

Daily Weather History Graph

Search for Another Location

Airport:

Trip Planner

Search our weather history database for the weather conditions in past years. The results will help you decide how hot, cold, wet, or windy it might be!

Date:

Astronomy

Sep. 09, 2012 Rise Set
Actual Time 7:01 AM WEST 7:39 PM WEST
Civil Twilight 6:36 AM WEST 8:04 PM WEST
Nautical Twilight 6:05 AM WEST 8:35 PM WEST
Astronomical Twilight 5:34 AM WEST 9:06 PM WEST
Moon 12:28 AM WEST (9/9) 3:04 PM WEST (9/9)
Length of Visible Light 13h 28m
Length of Day
12h 37m
Last Quarter, 41% of the Moon is Illuminated
Sep 9
Last Quarter
Sep 16
New
Sep 22
First Quarter
Sep 30
Full
Oct 8
Last Quarter

Hourly Weather History & Observations

Time (WEST) Temp. Dew Point Humidity Pressure Visibility Wind Dir Wind Speed Gust Speed Precip Events Conditions
12:00 AM - - N/A% - 3.1 mi SE 2.3 mph - N/A   Mostly Cloudy
12:30 AM - - N/A% - 3.1 mi South 3.5 mph - N/A   Mostly Cloudy
1:00 AM - - %  in 3 mi South 2.3 mph - -   Mostly Cloudy
1:00 AM - - N/A% 30.12 in 3.1 mi South 2.3 mph - N/A   Mostly Cloudy
1:30 AM - - N/A% 30.15 in 1.9 mi South 5.8 mph - N/A   Mostly Cloudy
2:00 AM - - N/A% 30.12 in 1.9 mi South 6.9 mph - N/A   Mostly Cloudy
2:30 AM - - N/A% 0.00 in - North - - N/A   Mostly Cloudy
3:00 AM - - N/A% 0.00 in - North - - N/A   Mostly Cloudy
3:30 AM - - N/A% 0.00 in - North - - N/A   Unknown
4:00 AM - - %  in - Calm Calm - -  
4:00 AM - - N/A% 0.00 in - North - - N/A   Unknown
4:30 AM - - N/A% 30.12 in 3.1 mi SW 3.5 mph - N/A   Scattered Clouds
5:30 AM - - N/A% 30.09 in 1.9 mi SW 6.9 mph - N/A   Scattered Clouds
6:00 AM - - N/A% 30.09 in 1.9 mi SSW 4.6 mph - N/A   Scattered Clouds
7:00 AM - - %  in 2 mi Calm Calm - -   Mist
7:00 AM - - N/A% 30.09 in 1.9 mi South 3.5 mph - N/A   Scattered Clouds
7:30 AM - - N/A% 30.12 in 1.9 mi South 4.6 mph - N/A   Scattered Clouds
7:42 AM - - N/A% 30.12 in 3.1 mi South 4.6 mph - N/A   Scattered Clouds
8:00 AM - - N/A% 30.12 in 3.1 mi South 4.6 mph - N/A   Scattered Clouds
8:30 AM - - N/A% 30.12 in 3.7 mi South 3.5 mph - N/A   Scattered Clouds
9:00 AM - - N/A% 30.12 in 3.7 mi South 6.9 mph - N/A   Mostly Cloudy
9:30 AM - - N/A% 30.12 in 3.7 mi South 8.1 mph - N/A   Mostly Cloudy
10:00 AM - - %  in 5 mi SW 9.2 mph - -   Partly Cloudy
10:00 AM - - N/A% 30.12 in 5.0 mi SW 8.1 mph - N/A   Mostly Cloudy
10:30 AM - - N/A% 30.12 in 5.0 mi SW 8.1 mph - N/A   Mostly Cloudy
11:00 AM 77.0 °F 60.8 °F 57% 30.12 in 5.0 mi West 9.2 mph - N/A   Mostly Cloudy
11:30 AM 77.0 °F 59.0 °F 54% 30.12 in 5.0 mi West 11.5 mph - N/A   Mostly Cloudy
12:00 PM 77.0 °F 60.8 °F 57% 30.12 in 5.0 mi West 11.5 mph - N/A   Mostly Cloudy
12:30 PM 77.0 °F 60.8 °F 57% 30.12 in 5.0 mi West 12.7 mph - N/A   Scattered Clouds
1:00 PM 74 °F 62 °F 57% 30.14 in 5 mi West 12.7 mph - -   Partly Cloudy
1:00 PM 75.2 °F 60.8 °F 61% 30.12 in 5.0 mi West 12.7 mph - N/A   Scattered Clouds
1:30 PM 75.2 °F 60.8 °F 61% 30.12 in 5.0 mi West 11.5 mph - N/A   Mostly Cloudy
2:00 PM 75.2 °F 60.8 °F 61% 30.09 in 5.0 mi West 11.5 mph - N/A   Scattered Clouds
2:30 PM 77.0 °F 60.8 °F 57% 30.09 in 5.0 mi West 12.7 mph - N/A   Scattered Clouds
3:00 PM 77.0 °F 60.8 °F 57% 30.09 in 5.0 mi West 11.5 mph - N/A   Scattered Clouds
3:30 PM 77.0 °F 62.6 °F 61% 30.09 in 5.0 mi West 12.7 mph - N/A   Scattered Clouds
4:00 PM 77 °F 62 °F 50% 30.09 in 5 mi West 13.8 mph - -   Scattered Clouds
4:00 PM 77.0 °F 62.6 °F 61% 30.06 in 5.0 mi West 13.8 mph - N/A   Scattered Clouds
4:30 PM - - N/A% 0.00 in - North - - N/A   Scattered Clouds
5:00 PM 75.2 °F 62.6 °F 65% 30.06 in 5.0 mi West 11.5 mph - N/A   Scattered Clouds
5:30 PM 75.2 °F 62.6 °F 65% 30.06 in 5.0 mi WNW 12.7 mph - N/A   Scattered Clouds
6:00 PM 75.2 °F 64.4 °F 69% 30.06 in 5.0 mi WNW 11.5 mph - N/A   Scattered Clouds
6:30 PM 73.4 °F 66.2 °F 78% 30.06 in 5.0 mi WNW 10.4 mph - N/A   Scattered Clouds
7:00 PM 73.4 °F 66.2 °F 78% 30.06 in 5.0 mi WNW 11.5 mph - N/A   Scattered Clouds
7:30 PM 71.6 °F 64.4 °F 78% 30.06 in 5.0 mi WNW 10.4 mph - N/A   Scattered Clouds
8:00 PM 69.8 °F 64.4 °F 83% 30.06 in 5.0 mi WNW 6.9 mph - N/A   Scattered Clouds
8:30 PM 68.0 °F 64.4 °F 88% 30.06 in 5.0 mi Calm Calm - N/A   Scattered Clouds
9:00 PM 69.8 °F 64.4 °F 83% 30.09 in 5.0 mi Calm Calm - N/A   Scattered Clouds
9:30 PM 68.0 °F 64.4 °F 88% 30.09 in 5.0 mi Calm Calm - N/A   Scattered Clouds
10:00 PM 66 °F 62 °F 85% 30.10 in 5 mi Calm Calm - -   Partly Cloudy
10:00 PM 66.2 °F 62.6 °F 88% 30.09 in 5.0 mi Calm Calm - N/A   Scattered Clouds
10:30 PM 66.2 °F 62.6 °F 88% 30.09 in 5.0 mi Calm Calm - N/A   Scattered Clouds
11:00 PM 66.2 °F 62.6 °F 88% 30.09 in 5.0 mi Calm Calm - N/A   Scattered Clouds
11:30 PM 66.2 °F 64.4 °F 94% 30.09 in 5.0 mi Calm Calm - N/A   Scattered Clouds